Weather History for KDET - March, 2013

Change the Weather History Date:

Tuesday, March 19, 2013

  Actual Average Record
Temperature  
Mean Temperature 40 °F -  
Max Temperature 57 °F 45 °F 75 °F (2012)
Min Temperature 24 °F 30 °F 13 °F (1949)
Degree Days  
Heating Degree Days 26    
Moisture  
Dew Point 19 °F    
Average Humidity 68    
Maximum Humidity 87    
Minimum Humidity 39    
Precipitation  
Precipitation 0.00 in - - ()
Sea Level Pressure  
Sea Level Pressure 29.77 in    
Wind  
Wind Speed 14 mph (West)    
Max Wind Speed 23 mph    
Max Gust Speed 33 mph    
Visibility 9 miles    
Events Snow    
Averages and records for this station are not official NWS values.
T = Trace of Precipitation, MM = Missing Value Source: NWS Daily Summary

Daily Weather History Graph

Daily Weather History Graph

Search for Another Location

Airport or City:

Trip Planner

Search our weather history database for the weather conditions in past years. The results will help you decide how hot, cold, wet, or windy it might be!

Date:

Astronomy

Mar. 19, 2013 Rise Set
Actual Time 7:36 AM EDT 7:43 PM EDT
Civil Twilight 7:08 AM EDT 8:11 PM EDT
Nautical Twilight 6:35 AM EDT 8:44 PM EDT
Astronomical Twilight 6:02 AM EDT 9:17 PM EDT
Moon 12:19 PM EDT (3/19) 2:36 AM EDT (3/19)
Length of Visible Light 13h 02m
Length of Day
12h 06m
Waxing Crescent, 49% of the Moon is Illuminated
Mar 19
Waxing Crescent
Mar 19
First Quarter
Mar 27
Full
Apr 3
Last Quarter
Apr 10
New

Hourly Weather History & Observations

Time (EDT) Temp. Windchill Dew Point Humidity Pressure Visibility Wind Dir Wind Speed Gust Speed Precip Events Conditions
12:53 AM 36.0 °F 27.1 °F 32.0 °F 86% 29.64 in 10.0 mi West 13.8 mph 20.7 mph N/A   Overcast
1:28 AM 35.6 °F 28.0 °F 30.2 °F 81% 29.62 in 10.0 mi WSW 10.4 mph - N/A   Overcast
1:53 AM 55.0 °F - 30.2 °F 39% 29.63 in 10.0 mi WSW 10.4 mph - N/A   Overcast
2:44 AM 35.6 °F 26.6 °F 30.2 °F 81% 29.61 in 10.0 mi SW 13.8 mph - N/A   Overcast
2:53 AM 35.6 °F 28.6 °F 30.2 °F 81% 29.63 in 10.0 mi SW 9.2 mph 19.6 mph N/A   Overcast
3:53 AM 35.6 °F 26.2 °F 32.0 °F 87% 29.65 in 10.0 mi West 15.0 mph 28.8 mph 0.00 in   Overcast
4:53 AM 30.0 °F 16.6 °F 21.9 °F 72% 29.68 in 10.0 mi WSW 23.0 mph 29.9 mph N/A   Overcast
5:53 AM 27.0 °F 14.7 °F 17.1 °F 66% 29.71 in 10.0 mi West 16.1 mph 29.9 mph N/A   Overcast
6:17 AM 26.6 °F 13.8 °F 17.6 °F 69% 29.70 in 10.0 mi West 17.3 mph 23.0 mph N/A   Overcast
6:43 AM 26.6 °F 14.3 °F 17.6 °F 69% 29.70 in 10.0 mi West 16.1 mph 24.2 mph N/A   Overcast
6:53 AM 27.0 °F 16.7 °F 17.1 °F 66% 29.73 in 10.0 mi West 11.5 mph 19.6 mph N/A   Overcast
7:53 AM 25.0 °F 12.6 °F 15.1 °F 66% 29.75 in 10.0 mi West 15.0 mph 28.8 mph 0.00 in   Overcast
8:46 AM 24.8 °F 12.4 °F 17.6 °F 74% 29.73 in 2.5 mi WSW 15.0 mph 24.2 mph 0.00 in Snow Light Snow
8:53 AM 24.1 °F 13.7 °F 18.0 °F 77% 29.75 in 2.0 mi WSW 10.4 mph 20.7 mph 0.00 in Snow Light Snow
9:03 AM 24.8 °F 13.4 °F 17.6 °F 74% 29.73 in 4.0 mi WSW 12.7 mph 20.7 mph 0.00 in Snow Light Snow
9:53 AM 24.1 °F 10.1 °F 17.1 °F 75% 29.76 in 5.0 mi West 18.4 mph 29.9 mph 0.00 in Snow Light Snow
10:19 AM 24.8 °F 11.9 °F 15.8 °F 69% 29.74 in 10.0 mi West 16.1 mph 24.2 mph 0.00 in   Overcast
10:53 AM 25.0 °F 11.3 °F 14.0 °F 63% 29.77 in 10.0 mi WSW 18.4 mph 24.2 mph 0.00 in   Overcast
11:53 AM 26.1 °F 12.7 °F 12.9 °F 58% 29.78 in 10.0 mi WSW 18.4 mph 29.9 mph 0.00 in   Overcast
12:53 PM 26.1 °F 14.0 °F 16.0 °F 66% 29.80 in 9.0 mi West 15.0 mph 27.6 mph 0.00 in   Overcast
1:53 PM 27.0 °F 14.7 °F 15.1 °F 61% 29.79 in 9.0 mi West 16.1 mph 33.4 mph 0.00 in Snow Light Snow
2:53 PM 27.0 °F 13.9 °F 15.1 °F 61% 29.81 in 9.0 mi West 18.4 mph 29.9 mph 0.00 in Snow Light Snow
3:53 PM 26.1 °F 12.7 °F 15.1 °F 63% 29.83 in 10.0 mi West 18.4 mph 28.8 mph 0.00 in   Overcast
4:53 PM 27.0 °F 15.2 °F 16.0 °F 63% 29.85 in 10.0 mi West 15.0 mph 23.0 mph 0.00 in   Overcast
5:53 PM 27.0 °F 14.3 °F 16.0 °F 63% 29.88 in 10.0 mi West 17.3 mph 31.1 mph N/A   Overcast
6:53 PM 28.0 °F 17.5 °F 17.1 °F 63% 29.90 in 10.0 mi West 12.7 mph 21.9 mph N/A   Overcast
7:53 PM 27.0 °F 14.7 °F 17.1 °F 66% 29.91 in 10.0 mi West 16.1 mph 27.6 mph N/A   Overcast
8:53 PM 28.0 °F 17.5 °F 16.0 °F 61% 29.94 in 10.0 mi West 12.7 mph 24.2 mph N/A   Overcast
9:53 PM 28.0 °F 16.5 °F 16.0 °F 61% 29.94 in 10.0 mi West 15.0 mph 23.0 mph N/A   Overcast
10:53 PM 28.0 °F 19.3 °F 16.0 °F 61% 29.95 in 10.0 mi West 9.2 mph 16.1 mph N/A   Mostly Cloudy
11:53 PM 27.0 °F 16.1 °F 15.1 °F 61% 29.94 in 10.0 mi West 12.7 mph 20.7 mph N/A   Mostly Cloudy